sat.trackr.live / text

‹ back to catalog

HAIYANG 4-01

NORAD 61936 · 2024-208A

PAYLOAD ACTIVE UNKNOWN

§ Identity

Operator
Country
PRC
Launch date
2024-11-13
Launch site
TAISC
Launch vehicle
Mass (kg)
RCS (m²)

External: N2YO · Heavens-Above · Gunter

§ Orbital elements

Epoch: 2026-05-25T04:03:15.645312Z

Period
97.74 min
Inclination
98.0034°
Eccentricity
0.0000672
Mean motion
14.73311401 rev/d
Perigee alt
650.0 km
Apogee alt
651.0 km
Semi-major
7,028.7 km
B*
6.5986e-5
RAAN
153.2417°
Arg perigee
129.6840°
Mean anomaly
230.4427°
Rev number
8,205

§ Raw data

HAIYANG 4-011 61936U 24208A   26145.16893108  .00000377  00000+0  65986-4 0  99992 61936  98.0034 153.2417 0000672 129.6840 230.4427 14.73311401 82051

JSON: /api/v1/satellites/61936 · /tle

For live sub-satellite position, see the globe view (requires WebGL).

§ Visibility from observer

Set your observer location to see the next 7 days of passes ≥ 10°. The values pass through the URL so the page stays shareable.

No JS? Fill the form by hand. The geolocation button needs JavaScript.

§ Radio — SatNOGS DB

ModeDescriptionDownlinkUplink
FM S-band telemetry 2.220 GHz

1 transmitter · refreshed weekly from db.satnogs.org